• In Uzbekistan
  • List of Countries
  • For 7 days
  • Water Temperature
  • Satellite Maps
  • Weather Map
  • Weather Widgets
  • user-avatar
    Login

    Hourly Weather Beijing

    Today, 13 November, Tuesday

    Time Temperature Precipitation Wind Pressure Humidity
    00:00 +9°C° 0 mm 1 mps 761 mmHg 51%
    01:00 +9°C° 0 mm 1 mps 761 mmHg 52%
    02:00 +9°C° 0 mm 1 mps 761 mmHg 53%
    03:00 +7°C° 0 mm 0 mps 761 mmHg 54%
    04:00 +7°C° 0 mm 0 mps 761 mmHg 55%
    05:00 +7°C° 0 mm 0 mps 761 mmHg 56%
    06:00 +7°C° 0 mm 0 mps 762 mmHg 55%
    07:00 +7°C° 0 mm 0 mps 762 mmHg 55%
    08:00 +7°C° 0 mm 0 mps 762 mmHg 54%
    09:00 +9°C° 0 mm 0 mps 762 mmHg 49%
    10:00 +12°C° 0 mm 1 mps 762 mmHg 44%
    11:00 +14°C° 0 mm 1 mps 762 mmHg 39%
    12:00 +14°C° 0 mm 1 mps 761 mmHg 38%
    13:00 +15°C° 0 mm 1 mps 761 mmHg 36%
    14:00 +16°C° 0 mm 2 mps 760 mmHg 35%
    15:00 +15°C° 0 mm 1 mps 760 mmHg 38%
    16:00 +14°C° 0 mm 1 mps 760 mmHg 41%
    17:00 +13°C° 0 mm 1 mps 761 mmHg 44%
    18:00 +12°C° 0 mm 1 mps 761 mmHg 46%
    19:00 +12°C° 0 mm 1 mps 761 mmHg 49%
    20:00 +11°C° 0 mm 1 mps 761 mmHg 51%
    21:00 +11°C° 0 mm 1 mps 762 mmHg 53%
    22:00 +11°C° 0 mm 1 mps 762 mmHg 54%
    23:00 +10°C° 0 mm 1 mps 762 mmHg 56%

    Tomorrow, 14 November, Wednesday

    Time Temperature Precipitation Wind Pressure Humidity
    00:00 +10°C° 0 mm 1 mps 762 mmHg 57%
    01:00 +10°C° 0 mm 1 mps 762 mmHg 59%
    02:00 +9°C° 0 mm 1 mps 763 mmHg 61%
    03:00 +9°C° 0 mm 1 mps 762 mmHg 63%
    04:00 +8°C° 0 mm 1 mps 762 mmHg 65%
    05:00 +8°C° 0 mm 1 mps 762 mmHg 67%
    06:00 +8°C° 0 mm 1 mps 762 mmHg 67%
    07:00 +7°C° 0 mm 0 mps 763 mmHg 67%
    08:00 +7°C° 0 mm 0 mps 763 mmHg 67%
    09:00 +10°C° 0 mm 1 mps 763 mmHg 61%
    10:00 +12°C° 0 mm 1 mps 763 mmHg 54%
    11:00 +14°C° 0 mm 1 mps 763 mmHg 47%
    12:00 +14°C° 0 mm 1 mps 762 mmHg 44%
    13:00 +15°C° 0 mm 2 mps 762 mmHg 41%
    14:00 +16°C° 0 mm 2 mps 761 mmHg 38%
    15:00 +15°C° 0 mm 2 mps 761 mmHg 41%
    16:00 +14°C° 0 mm 1 mps 761 mmHg 43%
    17:00 +13°C° 0 mm 1 mps 761 mmHg 45%
    18:00 +13°C° 0 mm 1 mps 762 mmHg 47%
    19:00 +12°C° 0 mm 0 mps 762 mmHg 48%
    20:00 +11°C° 0 mm 0 mps 763 mmHg 49%
    21:00 +12°C° 0 mm 1 mps 763 mmHg 51%
    22:00 +12°C° 0 mm 1 mps 763 mmHg 52%
    23:00 +11°C° 0 mm 1 mps 763 mmHg 54%

    Day after tomorrow, 15 November, Thursday

    Time Temperature Precipitation Wind Pressure Humidity
    00:00 +11°C° 0 mm 1 mps 763 mmHg 54%
    01:00 +11°C° 0 mm 1 mps 763 mmHg 55%
    02:00 +10°C° 0 mm 1 mps 763 mmHg 56%
    03:00 +9°C° 0 mm 2 mps 763 mmHg 56%
    04:00 +9°C° 0 mm 2 mps 763 mmHg 57%
    05:00 +9°C° 0 mm 2 mps 763 mmHg 57%
    06:00 +9°C° 0 mm 3 mps 764 mmHg 55%
    07:00 +9°C° 0 mm 3 mps 765 mmHg 53%
    08:00 +9°C° 0 mm 3 mps 765 mmHg 51%
    09:00 +10°C° 0 mm 4 mps 766 mmHg 47%
    10:00 +11°C° 0 mm 4 mps 766 mmHg 43%
    11:00 +11°C° 0 mm 4 mps 766 mmHg 39%
    12:00 +12°C° 0 mm 4 mps 766 mmHg 35%
    13:00 +12°C° 0 mm 4 mps 766 mmHg 31%
    14:00 +12°C° 0 mm 4 mps 766 mmHg 27%
    15:00 +11°C° 0 mm 3 mps 766 mmHg 28%
    16:00 +11°C° 0 mm 3 mps 767 mmHg 29%
    17:00 +10°C° 0 mm 2 mps 767 mmHg 30%
    18:00 +9°C° 0 mm 2 mps 768 mmHg 33%
    19:00 +8°C° 0 mm 2 mps 768 mmHg 36%
    20:00 +7°C° 0 mm 2 mps 769 mmHg 39%
    21:00 +6°C° 0 mm 2 mps 769 mmHg 40%
    22:00 +6°C° 0 mm 2 mps 770 mmHg 41%
    23:00 +5°C° 0 mm 2 mps 770 mmHg 42%

    16 November, Friday

    Time Temperature Precipitation Wind Pressure Humidity
    00:00 +5°C° 0 mm 2 mps 770 mmHg 40%
    01:00 +4°C° 0 mm 2 mps 770 mmHg 39%
    02:00 +4°C° 0 mm 2 mps 770 mmHg 37%
    03:00 +3°C° 0 mm 2 mps 770 mmHg 35%
    04:00 +4°C° 0 mm 1 mps 770 mmHg 33%
    05:00 +3°C° 0 mm 1 mps 770 mmHg 31%
    06:00 +3°C° 0 mm 1 mps 770 mmHg 30%
    07:00 +3°C° 0 mm 1 mps 771 mmHg 28%
    08:00 +3°C° 0 mm 1 mps 771 mmHg 27%
    09:00 +5°C° 0 mm 1 mps 771 mmHg 23%
    10:00 +7°C° 0 mm 1 mps 771 mmHg 19%
    11:00 +8°C° 0 mm 1 mps 770 mmHg 15%
    12:00 +9°C° 0 mm 1 mps 769 mmHg 14%
    13:00 +10°C° 0 mm 1 mps 768 mmHg 13%
    14:00 +10°C° 0 mm 1 mps 768 mmHg 12%
    15:00 +9°C° 0 mm 1 mps 767 mmHg 13%
    16:00 +8°C° 0 mm 1 mps 767 mmHg 15%
    17:00 +7°C° 0 mm 1 mps 767 mmHg 16%
    18:00 +7°C° 0 mm 1 mps 767 mmHg 18%
    19:00 +7°C° 0 mm 1 mps 767 mmHg 20%
    20:00 +6°C° 0 mm 1 mps 767 mmHg 22%
    21:00 +6°C° 0 mm 1 mps 767 mmHg 24%
    22:00 +5°C° 0 mm 1 mps 767 mmHg 25%
    23:00 +5°C° 0 mm 1 mps 767 mmHg 26%

    17 November, Saturday

    Time Temperature Precipitation Wind Pressure Humidity
    00:00 +5°C° 0 mm 1 mps 767 mmHg 27%
    01:00 +5°C° 0 mm 1 mps 767 mmHg 27%
    02:00 +5°C° 0 mm 1 mps 767 mmHg 28%
    03:00 +4°C° 0 mm 1 mps 766 mmHg 28%
    04:00 +4°C° 0 mm 1 mps 766 mmHg 28%
    05:00 +4°C° 0 mm 1 mps 766 mmHg 28%
    06:00 +4°C° 0 mm 1 mps 766 mmHg 28%
    07:00 +5°C° 0 mm 1 mps 766 mmHg 28%
    08:00 +5°C° 0 mm 1 mps 766 mmHg 28%
    09:00 +6°C° 0 mm 1 mps 766 mmHg 26%
    10:00 +8°C° 0 mm 1 mps 765 mmHg 24%
    11:00 +10°C° 0 mm 1 mps 765 mmHg 22%
    12:00 +10°C° 0 mm 1 mps 764 mmHg 20%
    13:00 +10°C° 0 mm 2 mps 763 mmHg 19%
    14:00 +12°C° 0 mm 2 mps 762 mmHg 18%
    15:00 +10°C° 0 mm 2 mps 762 mmHg 21%
    16:00 +9°C° 0 mm 2 mps 762 mmHg 23%
    17:00 +9°C° 0 mm 1 mps 762 mmHg 25%
    18:00 +9°C° 0 mm 1 mps 762 mmHg 28%
    19:00 +8°C° 0 mm 1 mps 763 mmHg 30%
    20:00 +7°C° 0 mm 1 mps 763 mmHg 32%
    21:00 +7°C° 0 mm 1 mps 763 mmHg 32%
    22:00 +7°C° 0 mm 1 mps 763 mmHg 33%
    23:00 +6°C° 0 mm 1 mps 763 mmHg 33%

    18 November, Sunday

    Time Temperature Precipitation Wind Pressure Humidity
    00:00 +6°C° 0 mm 1 mps 763 mmHg 33%
    01:00 +6°C° 0 mm 1 mps 763 mmHg 33%
    02:00 +5°C° 0 mm 1 mps 763 mmHg 33%
    03:00 +5°C° 0 mm 1 mps 763 mmHg 32%
    04:00 +4°C° 0 mm 2 mps 763 mmHg 31%
    05:00 +4°C° 0 mm 2 mps 763 mmHg 30%
    06:00 +4°C° 0 mm 2 mps 763 mmHg 28%
    07:00 +4°C° 0 mm 2 mps 763 mmHg 27%
    08:00 +4°C° 0 mm 2 mps 763 mmHg 25%
    09:00 +5°C° 0 mm 3 mps 763 mmHg 22%
    10:00 +6°C° 0 mm 4 mps 763 mmHg 19%
    11:00 +8°C° 0 mm 4 mps 763 mmHg 15%
    12:00 +10°C° 0 mm 4 mps 763 mmHg 15%
    13:00 +10°C° 0 mm 4 mps 762 mmHg 14%
    14:00 +11°C° 0 mm 4 mps 762 mmHg 14%
    15:00 +10°C° 0 mm 3 mps 762 mmHg 15%
    16:00 +9°C° 0 mm 2 mps 763 mmHg 16%
    17:00 +8°C° 0 mm 2 mps 763 mmHg 17%
    18:00 +8°C° 0 mm 1 mps 763 mmHg 18%
    19:00 +7°C° 0 mm 1 mps 764 mmHg 19%
    20:00 +7°C° 0 mm 1 mps 764 mmHg 20%
    21:00 +6°C° 0 mm 1 mps 764 mmHg 21%
    22:00 +6°C° 0 mm 1 mps 765 mmHg 22%
    23:00 +5°C° 0 mm 1 mps 765 mmHg 23%
    Show more